Ketchikan, AK

3:42 PM AKDT on May 27, 2017 (GMT -0800)
Ketchikan International

Weather History for PAKT - November, 2013

Change the Weather History Date:

Friday, November 15, 2013

  Actual Average Record
Temperature  
Mean Temperature 40 °F -  
Max Temperature 46 °F 45 °F 57 °F (1979)
Min Temperature 32 °F 34 °F 17 °F (1959)
Degree Days  
Heating Degree Days 24    
Moisture  
Dew Point 37 °F    
Average Humidity 80    
Maximum Humidity 100    
Minimum Humidity 51    
Precipitation  
Precipitation 0.12 in - - ()
Sea Level Pressure  
Sea Level Pressure 29.51 in    
Wind  
Wind Speed 9 mph (NW)    
Max Wind Speed 25 mph    
Max Gust Speed 30 mph    
Visibility 7 miles    
Events Fog , Rain    
Averages and records for this station are not official NWS values.
T = Trace of Precipitation, MM = Missing Value Source: NWS Daily Summary

Daily Weather History Graph

Daily Weather History Graph

Search for Another Location

Airport or City:

Trip Planner

Search our weather history database for the weather conditions in past years. The results will help you decide how hot, cold, wet, or windy it might be!

Date:

Astronomy

Nov. 15, 2013 Rise Set
Actual Time 7:21 AM AKST 3:41 PM AKST
Civil Twilight 6:39 AM AKST 4:22 PM AKST
Nautical Twilight 5:54 AM AKST 5:07 PM AKST
Astronomical Twilight 5:11 AM AKST 5:50 PM AKST
Moon 2:56 PM AKST (11/15) 5:07 AM AKST (11/15)
Length of Visible Light 9h 42m
Length of Day
8h 19m
Waxing Gibbous, 97% of the Moon is Illuminated
Nov 15
Waxing Gibbous
Nov 17
Full
Nov 25
Last Quarter
Dec 2
New
Dec 9
First Quarter

Hourly Weather History & Observations

Time (AKST) Temp. Windchill Dew Point Humidity Pressure Visibility Wind Dir Wind Speed Gust Speed Precip Events Conditions
12:53 AM 45.0 °F 41.8 °F 44.1 °F 97% 29.57 in 10.0 mi SE 5.8 mph - 0.04 in Rain Light Rain
1:53 AM 45.0 °F 41.8 °F 44.1 °F 97% 29.53 in 8.0 mi SE 5.8 mph - 0.00 in   Overcast
2:37 AM 44.6 °F 42.2 °F 44.6 °F 100% 29.50 in 8.0 mi SE 4.6 mph - N/A   Overcast
3:01 AM 44.6 °F 40.2 °F 44.6 °F 100% 29.49 in 1.8 mi SSE 8.1 mph - N/A   Overcast
3:08 AM 44.6 °F 40.7 °F 44.6 °F 100% 29.48 in 0.8 mi SE 6.9 mph - N/A   Overcast
3:18 AM 44.6 °F 42.2 °F 44.6 °F 100% 29.47 in 0.5 mi SSE 4.6 mph - N/A Fog Fog
3:32 AM 44.6 °F 41.4 °F 44.6 °F 100% 29.46 in 0.5 mi SE 5.8 mph - N/A Fog Fog
3:50 AM 44.6 °F 40.7 °F 44.6 °F 100% 29.45 in 0.5 mi SSE 6.9 mph - 0.00 in Fog , Rain Light Rain
3:51 AM 44.6 °F 40.7 °F 44.6 °F 100% 29.44 in 0.5 mi SSE 6.9 mph - 0.00 in Fog , Rain Light Rain
3:53 AM 45.0 °F 42.6 °F 44.1 °F 97% 29.45 in 0.5 mi SSE 4.6 mph - 0.01 in Fog , Rain Light Rain
4:20 AM 44.6 °F 43.1 °F 44.6 °F 100% 29.43 in 1.0 mi SSE 3.5 mph - 0.00 in   Overcast
4:26 AM 44.6 °F 42.2 °F 44.6 °F 100% 29.43 in 1.2 mi Variable 4.6 mph - 0.00 in Rain Light Rain
4:34 AM 44.6 °F 42.2 °F 44.6 °F 100% 29.43 in 3.0 mi NNW 4.6 mph - 0.00 in Rain Light Rain
4:53 AM 45.0 °F 39.3 °F 43.0 °F 93% 29.42 in 6.0 mi NW 11.5 mph 19.6 mph 0.01 in Rain Light Rain
5:11 AM 46.4 °F 41.5 °F 42.8 °F 87% 29.40 in 10.0 mi WNW 10.4 mph 17.3 mph 0.01 in Rain Light Rain
5:24 AM 46.4 °F 41.5 °F 42.8 °F 87% 29.40 in 4.0 mi NW 10.4 mph - 0.05 in Rain Rain
5:35 AM 46.4 °F 42.4 °F 42.8 °F 87% 29.40 in 10.0 mi WNW 8.1 mph 17.3 mph 0.05 in Rain Light Rain
5:53 AM 46.0 °F 41.4 °F 42.1 °F 86% 29.40 in 10.0 mi WNW 9.2 mph 18.4 mph 0.06 in Rain Light Rain
6:08 AM 46.4 °F 41.5 °F 42.8 °F 87% 29.40 in 10.0 mi WNW 10.4 mph 21.9 mph 0.00 in Rain Light Rain
6:53 AM 45.0 °F 39.7 °F 39.9 °F 82% 29.40 in 10.0 mi WNW 10.4 mph 21.9 mph 0.00 in   Mostly Cloudy
7:53 AM 46.0 °F 39.6 °F 37.0 °F 71% 29.40 in 10.0 mi WNW 15.0 mph 24.2 mph 0.00 in   Mostly Cloudy
8:53 AM 43.0 °F 34.5 °F 37.0 °F 80% 29.41 in 10.0 mi NNW 19.6 mph 25.3 mph N/A   Overcast
9:53 AM 41.0 °F 33.5 °F 35.1 °F 79% 29.45 in 10.0 mi NW 13.8 mph 20.7 mph N/A   Overcast
10:53 AM 42.1 °F 33.9 °F 35.1 °F 76% 29.48 in 10.0 mi NW 17.3 mph 25.3 mph N/A   Overcast
11:51 AM 42.8 °F 34.8 °F 33.8 °F 70% 29.50 in 10.0 mi NW 17.3 mph 29.9 mph N/A   Scattered Clouds
11:53 AM 43.0 °F 34.5 °F 33.1 °F 68% 29.51 in 10.0 mi NW 19.6 mph 26.5 mph N/A   Scattered Clouds
12:53 PM 44.1 °F 35.9 °F 28.9 °F 55% 29.55 in 10.0 mi NNW 19.6 mph 27.6 mph N/A   Scattered Clouds
1:53 PM 43.0 °F 33.3 °F 28.0 °F 56% 29.58 in 10.0 mi NNW 25.3 mph 29.9 mph N/A   Partly Cloudy
2:53 PM 42.1 °F 33.6 °F 26.1 °F 53% 29.62 in 10.0 mi NNW 18.4 mph 26.5 mph N/A   Partly Cloudy
3:53 PM 41.0 °F 32.2 °F 24.1 °F 51% 29.64 in 10.0 mi NW 18.4 mph 27.6 mph N/A   Partly Cloudy
4:53 PM 39.9 °F 32.1 °F 24.1 °F 53% 29.63 in 10.0 mi North 13.8 mph - N/A   Clear
5:53 PM 39.0 °F 30.3 °F 23.0 °F 53% 29.66 in 10.0 mi NW 16.1 mph 23.0 mph N/A   Clear
6:53 PM 37.9 °F 29.2 °F 23.0 °F 55% 29.67 in 10.0 mi NW 15.0 mph 24.2 mph N/A   Clear
7:53 PM 37.9 °F 29.2 °F 25.0 °F 60% 29.67 in 10.0 mi NNW 15.0 mph - N/A   Clear
8:53 PM 37.0 °F 30.4 °F 25.0 °F 62% 29.68 in 10.0 mi NNW 9.2 mph - N/A   Clear
9:53 PM 35.1 °F 32.2 °F 25.0 °F 67% 29.69 in 10.0 mi Variable 3.5 mph - N/A   Clear
10:53 PM 35.1 °F - 26.1 °F 70% 29.69 in 10.0 mi Calm Calm - N/A   Clear
11:53 PM 32.0 °F - 25.0 °F 75% 29.69 in 10.0 mi Calm Calm - N/A   Clear